Location: Tamazert
(32.6352°N, 5.2072°W)
Time: 04:15:30
(UTC+00:00)

Vanguard 2 Rocket - Pass Details

Date: 09 October 2022
Orbit: 555 x 3321 km, 32.9° (Epoch: 05 December)

Event Time Altitude Azimuth Distance (km) Brightness Sun altitude
Rises 18:36:55 0° 218° (SW) 6,976 12.0 -9.6°
Reaches altitude 10° 18:41:43 10° 213° (SSW) 6,134 11.6 -10.6°
Maximum altitude 19:00:20 47° 147° (SSE) 3,885 9.8 -14.5°
Enters shadow 19:12:25 20° 88° (E) 4,677 9.8 -17.0°
Drops below altitude 10° 19:15:54 10° 81° (E) 5,247 - -17.8°
Sets 19:19:34 0° 76° (ENE) 5,944 - -18.5°
